When you browse on this site, cookies collect data to enhance your experience and personalize the content and advertising you see.
Visit our Privacy Policy to learn more. By continuing to use the site, you agree to this use of cookies and data.
  • In Latvia
  • List of Countries
  • For 7 days
  • Water Temperature
  • Satellite Maps
  • Weather Map
  • Weather Widgets
  • user-avatar
    Login

    Hourly Weather Liepaja

    Today, 18 July, Thursday

    Time Temperature Precipitation Wind Pressure Humidity
    00:00 +13°C° 0 mm 4 mps 758 mmHg 95%
    01:00 +13°C° 0 mm 4 mps 757 mmHg 95%
    02:00 +13°C° 0 mm 4 mps 758 mmHg 95%
    03:00 +13°C° 0 mm 4 mps 758 mmHg 95%
    04:00 +13°C° 0 mm 4 mps 758 mmHg 95%
    05:00 +14°C° 0 mm 4 mps 758 mmHg 89%
    06:00 +17°C° 0 mm 4 mps 758 mmHg 83%
    07:00 +18°C° 0 mm 4 mps 758 mmHg 77%
    08:00 +19°C° 0 mm 4 mps 758 mmHg 70%
    09:00 +21°C° 0 mm 3 mps 758 mmHg 64%
    10:00 +22°C° 0 mm 3 mps 758 mmHg 57%
    11:00 +22°C° 0 mm 4 mps 759 mmHg 57%
    12:00 +22°C° 0 mm 4 mps 759 mmHg 58%
    13:00 +22°C° 0 mm 5 mps 759 mmHg 58%
    14:00 +21°C° 0 mm 5 mps 759 mmHg 58%
    15:00 +21°C° 0 mm 5 mps 759 mmHg 59%
    16:00 +21°C° 0 mm 5 mps 759 mmHg 59%
    17:00 +20°C° 0 mm 4 mps 759 mmHg 66%
    18:00 +19°C° 0 mm 4 mps 759 mmHg 72%
    19:00 +17°C° 0 mm 3 mps 759 mmHg 79%
    20:00 +16°C° 0 mm 3 mps 759 mmHg 83%
    21:00 +14°C° 0 mm 3 mps 759 mmHg 88%
    22:00 +14°C° 0 mm 2 mps 759 mmHg 93%
    23:00 +14°C° 0 mm 2 mps 759 mmHg 93%

    Tomorrow, 19 July, Friday

    Time Temperature Precipitation Wind Pressure Humidity
    00:00 +14°C° 0 mm 2 mps 759 mmHg 93%
    01:00 +14°C° 0 mm 2 mps 759 mmHg 93%
    02:00 +14°C° 0 mm 2 mps 759 mmHg 93%
    03:00 +14°C° 0 mm 2 mps 759 mmHg 92%
    04:00 +14°C° 0 mm 2 mps 759 mmHg 92%
    05:00 +15°C° 0 mm 2 mps 759 mmHg 85%
    06:00 +17°C° 0 mm 2 mps 760 mmHg 78%
    07:00 +18°C° 0 mm 2 mps 760 mmHg 71%
    08:00 +19°C° 0 mm 2 mps 760 mmHg 66%
    09:00 +20°C° 0 mm 2 mps 760 mmHg 61%
    10:00 +21°C° 0 mm 3 mps 760 mmHg 56%
    11:00 +21°C° 0 mm 3 mps 760 mmHg 56%
    12:00 +21°C° 0 mm 3 mps 760 mmHg 56%
    13:00 +21°C° 0 mm 4 mps 760 mmHg 56%
    14:00 +21°C° 0 mm 3 mps 760 mmHg 58%
    15:00 +21°C° 0 mm 3 mps 760 mmHg 59%
    16:00 +20°C° 0 mm 3 mps 761 mmHg 61%
    17:00 +19°C° 0 mm 2 mps 761 mmHg 66%
    18:00 +18°C° 0 mm 2 mps 761 mmHg 72%
    19:00 +18°C° 0 mm 1 mps 761 mmHg 77%
    20:00 +16°C° 0 mm 1 mps 761 mmHg 80%
    21:00 +15°C° 0 mm 1 mps 761 mmHg 83%
    22:00 +13°C° 0 mm 1 mps 761 mmHg 86%
    23:00 +13°C° 0 mm 1 mps 761 mmHg 87%

    Day after tomorrow, 20 July, Saturday

    Time Temperature Precipitation Wind Pressure Humidity
    00:00 +13°C° 0 mm 1 mps 762 mmHg 87%
    01:00 +12°C° 0 mm 0 mps 762 mmHg 87%
    02:00 +13°C° 0 mm 1 mps 762 mmHg 86%
    03:00 +13°C° 0 mm 1 mps 762 mmHg 85%
    04:00 +13°C° 0 mm 1 mps 762 mmHg 85%
    05:00 +15°C° 0 mm 1 mps 762 mmHg 79%
    06:00 +17°C° 0 mm 2 mps 762 mmHg 73%
    07:00 +18°C° 0 mm 2 mps 762 mmHg 67%
    08:00 +20°C° 0 mm 2 mps 763 mmHg 63%
    09:00 +21°C° 0 mm 2 mps 763 mmHg 58%
    10:00 +23°C° 0 mm 2 mps 763 mmHg 53%
    11:00 +24°C° 0 mm 2 mps 763 mmHg 51%
    12:00 +24°C° 0 mm 2 mps 763 mmHg 50%
    13:00 +24°C° 0 mm 2 mps 763 mmHg 48%
    14:00 +24°C° 0 mm 2 mps 763 mmHg 50%
    15:00 +24°C° 0 mm 1 mps 763 mmHg 52%
    16:00 +24°C° 0 mm 1 mps 763 mmHg 53%
    17:00 +23°C° 0 mm 1 mps 763 mmHg 60%
    18:00 +21°C° 0 mm 1 mps 763 mmHg 67%
    19:00 +19°C° 0 mm 2 mps 763 mmHg 74%
    20:00 +18°C° 0 mm 2 mps 763 mmHg 78%
    21:00 +17°C° 0 mm 2 mps 763 mmHg 81%
    22:00 +16°C° 0 mm 3 mps 763 mmHg 85%
    23:00 +16°C° 0 mm 3 mps 763 mmHg 83%

    21 July, Sunday

    Time Temperature Precipitation Wind Pressure Humidity
    00:00 +16°C° 0 mm 3 mps 763 mmHg 81%
    01:00 +15°C° 0 mm 4 mps 763 mmHg 79%
    02:00 +15°C° 0 mm 4 mps 762 mmHg 79%
    03:00 +15°C° 0 mm 4 mps 762 mmHg 79%
    04:00 +15°C° 0 mm 4 mps 762 mmHg 80%
    05:00 +17°C° 0 mm 5 mps 762 mmHg 77%
    06:00 +19°C° 0 mm 5 mps 762 mmHg 74%
    07:00 +21°C° 0 mm 5 mps 762 mmHg 71%
    08:00 +22°C° 0 mm 5 mps 762 mmHg 67%
    09:00 +23°C° 0 mm 4 mps 762 mmHg 63%
    10:00 +26°C° 0 mm 4 mps 762 mmHg 58%
    11:00 +26°C° 0.2 mm 4 mps 762 mmHg 62%
    12:00 +26°C° 0.2 mm 3 mps 761 mmHg 66%
    13:00 +26°C° 0.2 mm 3 mps 761 mmHg 69%
    14:00 +25°C° 0.9 mm 2 mps 761 mmHg 75%
    15:00 +24°C° 0.9 mm 2 mps 761 mmHg 81%
    16:00 +23°C° 0.9 mm 1 mps 761 mmHg 87%
    17:00 +21°C° 0.9 mm 2 mps 761 mmHg 90%
    18:00 +20°C° 0.9 mm 2 mps 761 mmHg 93%
    19:00 +18°C° 0.9 mm 2 mps 761 mmHg 97%
    20:00 +18°C° 0.3 mm 2 mps 761 mmHg 97%
    21:00 +18°C° 0.3 mm 2 mps 761 mmHg 97%
    22:00 +19°C° 0.3 mm 1 mps 761 mmHg 97%
    23:00 +19°C° 0.1 mm 1 mps 761 mmHg 97%

    22 July, Monday

    Time Temperature Precipitation Wind Pressure Humidity
    00:00 +19°C° 0.1 mm 1 mps 761 mmHg 97%
    01:00 +16°C° 0.1 mm 0 mps 761 mmHg 97%
    02:00 +18°C° 0.1 mm 1 mps 761 mmHg 97%
    03:00 +18°C° 0.1 mm 1 mps 761 mmHg 97%
    04:00 +18°C° 0.1 mm 1 mps 761 mmHg 97%
    05:00 +19°C° 0 mm 1 mps 761 mmHg 96%
    06:00 +19°C° 0 mm 2 mps 761 mmHg 95%
    07:00 +19°C° 0 mm 2 mps 761 mmHg 93%
    08:00 +20°C° 0 mm 3 mps 762 mmHg 88%
    09:00 +21°C° 0 mm 4 mps 762 mmHg 83%
    10:00 +22°C° 0 mm 4 mps 762 mmHg 78%
    11:00 +22°C° 0 mm 5 mps 763 mmHg 77%
    12:00 +21°C° 0 mm 5 mps 763 mmHg 76%
    13:00 +21°C° 0 mm 6 mps 763 mmHg 75%
    14:00 +21°C° 0 mm 6 mps 763 mmHg 78%
    15:00 +20°C° 0 mm 6 mps 763 mmHg 80%
    16:00 +20°C° 0 mm 7 mps 764 mmHg 83%
    17:00 +19°C° 0 mm 6 mps 764 mmHg 86%
    18:00 +19°C° 0 mm 6 mps 764 mmHg 88%
    19:00 +19°C° 0 mm 6 mps 764 mmHg 91%
    20:00 +19°C° 0 mm 5 mps 764 mmHg 92%
    21:00 +17°C° 0 mm 5 mps 764 mmHg 94%
    22:00 +17°C° 0 mm 5 mps 765 mmHg 96%
    23:00 +17°C° 0 mm 5 mps 765 mmHg 94%

    23 July, Tuesday

    Time Temperature Precipitation Wind Pressure Humidity
    00:00 +17°C° 0 mm 4 mps 765 mmHg 93%
    01:00 +17°C° 0 mm 4 mps 765 mmHg 92%
    02:00 +18°C° 0 mm 4 mps 765 mmHg 90%
    03:00 +18°C° 0 mm 4 mps 765 mmHg 89%
    04:00 +18°C° 0 mm 4 mps 765 mmHg 87%
    05:00 +19°C° 0 mm 4 mps 766 mmHg 83%
    06:00 +19°C° 0 mm 4 mps 766 mmHg 80%
    07:00 +19°C° 0 mm 5 mps 766 mmHg 77%
    08:00 +20°C° 0 mm 4 mps 766 mmHg 72%
    09:00 +22°C° 0 mm 4 mps 767 mmHg 66%
    10:00 +23°C° 0 mm 4 mps 767 mmHg 61%
    11:00 +25°C° 0 mm 4 mps 767 mmHg 59%
    12:00 +25°C° 0 mm 4 mps 767 mmHg 57%
    13:00 +26°C° 0 mm 4 mps 767 mmHg 54%
    14:00 +26°C° 0 mm 4 mps 767 mmHg 54%
    15:00 +26°C° 0 mm 4 mps 767 mmHg 54%
    16:00 +26°C° 0 mm 4 mps 767 mmHg 53%
    17:00 +25°C° 0 mm 4 mps 767 mmHg 59%
    18:00 +23°C° 0 mm 4 mps 767 mmHg 64%
    19:00 +21°C° 0 mm 4 mps 767 mmHg 69%
    20:00 +20°C° 0 mm 4 mps 767 mmHg 73%
    21:00 +19°C° 0 mm 4 mps 767 mmHg 76%
    22:00 +18°C° 0 mm 3 mps 767 mmHg 80%
    23:00 +17°C° 0 mm 3 mps 767 mmHg 80%
    Show more